Location: RyutenAO
(34.8939°N, 134.0022°E)
Time: 09:55:17
(UTC+09:00)

Oscar 19 - Pass Details

Date: 02 April 2023
Orbit: 773 x 788 km, 98.8° (Epoch: 29 May)

Event Time Altitude Azimuth Distance (km) Brightness Sun altitude
Rises 04:40:46 0° 5° (N) 3,267 14.2 -14.9°
Reaches altitude 10° 04:43:10 10° 358° (N) 2,338 13.3 -14.4°
Maximum altitude 04:48:00 43° 289° (WNW) 1,090 11.0 -13.4°
Enters shadow 04:52:48 10° 219° (SW) 2,313 12.6 -12.5°
